Location: Bilsen
(53.7722°N, 9.8765°E)
Time: 22:58:42
(UTC+00:00)

Lacrosse 5 - Pass Details

Date: 18 February 2020
Orbit: 715 x 724 km, 57.0° (Epoch: 21 March)

Event Time Altitude Azimuth Distance (km) Brightness Sun altitude
Exits shadow 05:26:52 14° 265° (W) 1,964 3.5 -10.6°
Maximum altitude 05:29:10 18° 234° (SW) 1,722 3.4 -10.3°
Drops below altitude 10° 05:32:32 10° 192° (SSW) 2,204 4.3 -9.8°
Sets 05:35:35 0° 174° (S) 3,122 5.3 -9.3°
